This demonstration page uses our WeatherBlox Daily Observations layout. Learn more.

Left ArrowRight Arrow

Hourly Observations for May 30, 2015

Temp ( °F °C ) Dew Point ( °F °C ) Humidity (%) Winds ( mph kmh ) Pressure ( in mb ) Visibility ( mi km ) Precip ( " mm )
12:53 am 00:53 Clear 73 22.8 49 9.4 43 43 Calm 29.83 1010 10 16 0.00 0.00
1:53 am 01:53 Clear 71 21.7 50 10 47 47 NNW 3 6 29.84 1011 10 16 0.00 0.00
2:53 am 02:53 Clear 70 21.1 51 10.6 51 51 Calm 29.84 1011 10 16 0.00 0.00
3:53 am 03:53 Clear 69 20.6 53 11.7 57 57 Calm 29.84 1010 10 16 0.00 0.00
4:53 am 04:53 Clear 68 20 53 11.7 59 59 N 3 6 29.84 1011 10 16 0.00 0.00
5:53 am 05:53 Sunny 67 19.4 54 12.2 63 63 Calm 29.85 1011 10 16 0.00 0.00
6:53 am 06:53 Sunny 68 20 53 11.7 59 59 Calm 29.87 1012 10 16 0.00 0.00
7:53 am 07:53 Sunny 71 21.7 53 11.7 53 53 Calm 29.88 1012 10 16 0.00 0.00
8:53 am 08:53 Sunny 77 25 51 10.6 40 40 Calm 29.88 1012 10 16 0.00 0.00
9:53 am 09:53 Sunny 81 27.2 49 9.4 33 33 VRB 5 7 29.88 1012 10 16 0.00 0.00
10:53 am 10:53 Sunny 82 27.8 50 10 33 33 VRB 3 6 29.88 1012 10 16 0.00 0.00
11:53 am 11:53 Sunny 84 28.9 51 10.6 32 32 WSW 6 9 29.87 1012 10 16 0.00 0.00
12:53 pm 12:53 Sunny 88 31.1 48 8.9 25 25 SW 10 17 29.85 1011 10 16 0.00 0.00
1:53 pm 13:53 Sunny 92 33.3 43 6.1 18 18 SSW 9 15 29.84 1010 10 16 0.00 0.00
2:53 pm 14:53 Sunny 92 33.3 41 5 17 17 S 9 15 29.83 1010 10 16 0.00 0.00
3:53 pm 15:53 Sunny 93 33.9 39 3.9 15 15 SSE 8 13 29.81 1010 10 16 0.00 0.00
4:53 pm 16:53 Sunny 92 33.3 37 2.8 14 14 S 6 9 29.80 1009 10 16 0.00 0.00
5:53 pm 17:53 Sunny 93 33.9 25 -3.9 8 8 SE 7 11 29.78 1008 10 16 0.00 0.00
6:53 pm 18:53 Sunny 91 32.8 30 -1.1 11 11 SW 6 9 29.77 1008 10 16 0.00 0.00
7:53 pm 19:53 Sunny 86 30 34 1.1 15 15 S 5 7 29.77 1008 10 16 0.00 0.00
8:53 pm 20:53 Clear 82 27.8 31 -0.6 16 16 E 6 9 29.78 1008 10 16 0.00 0.00
9:53 pm 21:53 Clear 77 25 34 1.1 21 21 Calm 29.80 1009 10 16 0.00 0.00
10:53 pm 22:53 Clear 72 22.2 39 3.9 30 30 N 3 6 29.81 1010 10 16 0.00 0.00
11:53 pm 23:53 Clear 70 21.1 42 5.6 37 37 NW 5 7 29.81 1010 10 16 0.00 0.00

Powered by AerisWeather